OE7SBH-WX Weather Reports


time (UTC)temp
C
wind
direction
speed
KPH
gust
KPH
rain 1hr
cm
rain 24hr
cm
rain mn
cm
humidity
%
barometer
mb
20260507080030 13 328 9.7 20.9 0.00 0.00 0.00 71 1018.6
20260507075031 12 319 8.0 20.9 0.00 0.00 0.00 73 1018.5
20260507074023 12 357 4.8 11.3 0.00 0.00 0.00 72 1018.6
20260507073032 12 327 4.8 6.4 0.00 0.00 0.00 75 1018.6
20260507072032 12 336 3.2 4.8 0.00 0.00 0.00 75 1018.4
20260507071039 12 34 0.0 1.6 0.00 0.00 0.00 75 1018.4
20260507070021 11 354 1.6 4.8 0.00 0.00 0.00 75 1018.2
20260507065050 11 359 1.6 3.2 0.00 0.00 0.00 74 1018.2
20260507064023 11 331 1.6 1.6 0.00 0.00 0.00 77 1018.3
20260507063029 10 69 0.0 3.2 0.00 0.00 0.00 79 1018.3
20260507062028 11 21 1.6 3.2 0.00 0.00 0.00 77 1018.3
20260507061021 10 338 3.2 4.8 0.00 0.00 0.00 80 1018.2
20260507060041 10 314 1.6 3.2 0.00 0.00 0.00 80 1018.1
20260507055028 10 321 1.6 3.2 0.00 0.00 0.00 82 1018.1
20260507054044 10 325 3.2 3.2 0.00 0.00 0.00 82 1018.0
20260507053028 10 0.0 0.0 0.00 0.00 0.00 82 1017.8
20260507052023 10 176 1.6 3.2 0.00 0.00 0.00 82 1017.7
20260507051031 9 0.0 0.0 0.00 0.00 0.00 83 1017.8
20260507050052 9 324 0.0 1.6 0.00 0.00 0.00 83 1017.8
20260507045029 9 196 0.0 1.6 0.00 0.00 0.00 82 1017.7
20260507044044 9 158 1.6 3.2 0.00 0.00 0.00 83 1017.6
20260507043032 8 282 0.0 1.6 0.00 0.00 0.00 84 1017.4
20260507042033 8 212 1.6 3.2 0.00 0.00 0.00 85 1017.2
20260507041015 8 94 1.6 3.2 0.00 0.00 0.00 86 1017.2
20260507040022 8 196 1.6 1.6 0.00 0.00 0.00 85 1017.0
20260507035032 8 122 3.2 4.8 0.00 0.00 0.00 86 1017.0
20260507034021 8 2 1.6 1.6 0.00 0.00 0.00 85 1016.9
20260507033028 8 329 1.6 1.6 0.00 0.00 0.00 86 1016.8
20260507032052 8 329 0.0 1.6 0.00 0.00 0.00 84 1017.0
20260507031019 8 327 1.6 3.2 0.00 0.00 0.00 84 1016.9
20260507030021 8 329 0.0 3.2 0.00 0.00 0.00 84 1016.9
20260507025016 8 0.0 0.0 0.00 0.00 0.00 85 1016.8
20260507024023 8 329 0.0 1.6 0.00 0.00 0.00 84 1016.7
20260507023032 8 0.0 0.0 0.00 0.00 0.00 83 1016.7
20260507022032 8 0.0 0.0 0.00 0.00 0.00 83 1016.8
20260507021019 8 331 1.6 3.2 0.00 0.00 0.00 83 1016.7
20260507020032 8 331 1.6 3.2 0.00 0.00 0.00 82 1016.6
20260507015039 8 329 1.6 3.2 0.00 0.00 0.00 81 1016.5
20260507014020 8 0.0 0.0 0.00 0.00 0.00 81 1016.4
20260507013029 9 0.0 0.0 0.00 0.00 0.00 81 1016.4
20260507012044 9 320 1.6 3.2 0.00 0.00 0.00 80 1016.4
20260507011019 8 0.0 0.0 0.00 0.00 0.00 81 1016.3
20260507010021 9 319 0.0 1.6 0.00 0.00 0.00 81 1016.3
20260507005029 9 323 0.0 1.6 0.00 0.00 0.00 82 1016.3
20260507004023 9 39 0.0 3.2 0.00 0.00 0.00 82 1016.0
20260507003027 10 343 0.0 1.6 0.00 0.00 0.00 79 1015.9
20260507002032 10 71 0.0 1.6 0.00 0.00 0.00 79 1016.0
20260507001039 10 30 0.0 1.6 0.00 0.00 0.00 77 1016.0
20260507000022 10 318 0.0 3.2 0.00 0.00 0.00 75 1016.0
20260506235029 11 324 1.6 3.2 0.00 0.00 0.00 75 1015.9
20260506234023 10 340 1.6 3.2 0.00 0.00 0.00 76 1016.0
20260506233034 11 341 1.6 3.2 0.00 0.00 0.00 76 1016.0
20260506232032 11 342 0.0 1.6 0.00 0.00 0.00 76 1015.9
20260506231036 11 236 1.6 3.2 0.00 0.00 0.00 76 1016.0
20260506230040 11 87 1.6 3.2 0.00 0.00 0.00 75 1015.9
20260506225029 11 0.0 0.0 0.00 0.00 0.00 69 1015.9
20260506224023 11 347 0.0 1.6 0.00 0.00 0.00 69 1015.7
20260506223031 12 347 0.0 1.6 0.00 0.00 0.00 69 1015.6
20260506222046 11 342 1.6 3.2 0.00 0.00 0.00 71 1015.7
20260506221029 11 24 0.0 1.6 0.00 0.00 0.00 73 1015.5
20260506220024 11 24 0.0 1.6 0.00 0.00 0.00 73 1015.3
20260506215016 12 64 1.6 3.2 0.00 0.00 0.00 70 1015.3
20260506214024 12 308 1.6 4.8 0.00 0.00 0.00 67 1015.2
20260506213031 12 324 4.8 6.4 0.00 0.00 0.00 68 1015.1
20260506212032 13 336 3.2 6.4 0.00 0.00 0.00 67 1015.1
20260506211018 13 334 6.4 11.3 0.00 0.00 0.00 66 1014.8
20260506210021 13 346 3.2 9.7 0.00 0.00 0.00 67 1014.8
20260506205019 13 333 8.0 20.9 0.00 0.00 0.00 65 1014.6
20260506204023 13 329 8.0 17.7 0.00 0.00 0.00 65 1014.5
20260506203048 13 330 6.4 12.9 0.00 0.00 0.00 66 1014.3
20260506202052 14 331 11.3 17.7 0.00 0.00 0.00 65 1014.2
20260506201029 14 329 11.3 14.5 0.00 0.00 0.00 66 1014.1
20260506200023 14 324 9.7 20.9 0.00 0.00 0.00 67 1013.8
20260506195032 14 321 8.0 12.9 0.00 0.00 0.00 66 1013.5
20260506194027 15 314 4.8 11.3 0.00 0.00 0.00 64 1013.2
20260506193031 15 303 4.8 6.4 0.00 0.00 0.00 63 1013.1
20260506192029 15 339 6.4 14.5 0.00 0.00 0.00 61 1012.9
20260506191029 15 327 9.7 17.7 0.00 0.00 0.00 60 1012.6
20260506190047 14 317 4.8 9.7 0.00 0.00 0.00 60 1012.4
20260506185026 15 359 3.2 4.8 0.00 0.00 0.00 57 1012.1
20260506184026 14 323 6.4 11.3 0.00 0.00 0.00 58 1011.7
20260506183028 15 315 3.2 4.8 0.00 0.00 0.00 58 1011.4
20260506182027 16 356 3.2 6.4 0.00 0.00 0.00 55 1011.4
20260506181029 16 183 1.6 6.4 0.00 0.00 0.00 51 1011.3
20260506180029 17 161 4.8 9.7 0.00 0.00 0.00 52 1011.2
20260506175019 17 160 6.4 12.9 0.00 0.00 0.00 51 1011.2
20260506174040 17 158 11.3 16.1 0.00 0.00 0.00 52 1011.1
20260506173029 17 155 11.3 16.1 0.00 0.00 0.00 50 1010.9
20260506172024 17 163 8.0 14.5 0.00 0.00 0.00 52 1010.9
20260506171028 17 167 9.7 20.9 0.00 0.00 0.00 51 1010.7
20260506170032 18 142 9.7 16.1 0.00 0.00 0.00 51 1010.4
20260506165016 18 155 12.9 20.9 0.00 0.00 0.00 46 1010.3
20260506164052 18 173 8.0 24.1 0.00 0.00 0.00 49 1010.3
20260506163016 18 170 11.3 20.9 0.00 0.00 0.00 48 1010.3
20260506162027 18 157 11.3 17.7 0.00 0.00 0.00 49 1010.6
20260506161021 18 173 14.5 24.1 0.00 0.00 0.00 50 1010.5
20260506160021 18 155 14.5 27.4 0.00 0.00 0.00 50 1010.5
20260506155208 18 157 17.7 27.4 0.00 0.00 0.00 50 1010.6
20260506154032 18 161 20.9 35.4 0.00 0.00 0.00 49 1010.7
20260506153032 19 148 16.1 27.4 0.00 0.00 0.00 46 1010.3
20260506152027 20 154 16.1 25.7 0.00 0.00 0.00 42 1009.9
20260506151028 20 215 8.0 14.5 0.00 0.00 0.00 42 1009.7
20260506150032 21 207 9.7 22.5 0.00 0.00 0.00 40 1009.7
20260506145028 21 153 9.7 16.1 0.00 0.00 0.00 40 1009.4
20260506144021 21 153 11.3 16.1 0.00 0.00 0.00 41 1009.2
20260506143032 21 91 4.8 9.7 0.00 0.00 0.00 39 1009.1
20260506142104 22 153 8.0 14.5 0.00 0.00 0.00 37 1009.2
20260506141032 23 329 3.2 11.3 0.00 0.00 0.00 36 1009.1
20260506140033 22 188 4.8 4.8 0.00 0.00 0.00 38 1009.3
20260506135029 22 181 4.8 14.5 0.00 0.00 0.00 38 1009.4
20260506134027 21 334 4.8 24.1 0.00 0.00 0.00 41 1009.5
20260506133032 21 316 6.4 17.7 0.00 0.00 0.00 39 1009.6
20260506132044 21 309 8.0 16.1 0.00 0.00 0.00 38 1009.7
20260506131032 21 135 6.4 17.7 0.00 0.00 0.00 39 1009.5
20260506130024 22 131 6.4 16.1 0.00 0.00 0.00 38 1009.3
20260506125048 21 119 6.4 12.9 0.00 0.00 0.00 39 1009.3
20260506124033 21 151 8.0 14.5 0.00 0.00 0.00 40 1009.5
20260506123023 21 130 6.4 12.9 0.00 0.00 0.00 41 1009.5
20260506122024 21 149 11.3 17.7 0.00 0.00 0.00 40 1009.6
20260506121032 21 292 3.2 9.7 0.00 0.00 0.00 38 1009.8
20260506120032 20 142 8.0 14.5 0.00 0.00 0.00 41 1009.9
20260506115016 20 211 11.3 20.9 0.00 0.00 0.00 41 1010.5
20260506114053 21 141 12.9 27.4 0.00 0.00 0.00 41 1010.0
20260506113037 21 144 11.3 22.5 0.00 0.00 0.00 40 1009.9
20260506112033 20 147 11.3 16.1 0.00 0.00 0.00 41 1010.3
20260506111032 20 131 11.3 20.9 0.00 0.00 0.00 41 1010.2
20260506110032 20 148 11.3 12.9 0.00 0.00 0.00 42 1010.4
20260506105032 20 146 14.5 22.5 0.00 0.00 0.00 42 1010.5
20260506104041 19 155 14.5 20.9 0.00 0.00 0.00 43 1010.7
20260506103016 19 150 12.9 20.9 0.00 0.00 0.00 44 1010.8
20260506102034 19 158 11.3 20.9 0.00 0.00 0.00 44 1011.0
20260506101053 19 147 14.5 20.9 0.00 0.00 0.00 46 1011.3
20260506100041 18 147 11.3 17.7 0.00 0.00 0.00 46 1011.6
20260506095016 18 158 12.9 20.9 0.00 0.00 0.00 49 1011.7
20260506094032 18 168 12.9 20.9 0.00 0.00 0.00 49 1012.0
20260506093029 16 153 16.1 30.6 0.00 0.00 0.00 58 1012.0
20260506092027 16 143 4.8 14.5 0.00 0.00 0.00 63 1012.1
20260506091032 16 163 4.8 6.4 0.00 0.00 0.00 63 1012.2
20260506090027 16 129 1.6 4.8 0.00 0.00 0.00 63 1012.1
20260506085029 16 358 1.6 3.2 0.00 0.00 0.00 62 1011.8
20260506084028 15 32 3.2 6.4 0.00 0.00 0.00 64 1011.7
20260506083032 16 357 3.2 6.4 0.00 0.00 0.00 61 1011.7
20260506082029 16 72 0.0 3.2 0.00 0.00 0.00 60 1011.9
20260506081029 15 56 3.2 4.8 0.00 0.00 0.00 62 1011.9